HS1AXC-1 Weather Reports


time (UTC)temp
F
wind
direction
speed
knots
gust
knots
rain 1hr
in
rain 24hr
in
rain mn
in
humidity
%
barometer
mb
20260505000030 86 0 0.0 0.0 0.00 0.00 0.00 86 1011.0
20260504235107 86 0 0.0 0.0 0.00 0.00 0.00 84 1011.0
20260504234045 86 0 0.0 0.0 0.00 0.00 0.00 86 1010.0
20260504233023 85 0 0.0 0.0 0.00 0.00 0.00 86 1010.0
20260504232000 85 0 0.0 0.0 0.00 0.00 0.00 86 1010.0
20260504230938 85 0 0.0 0.0 0.00 0.00 0.00 85 1010.0
20260504225916 85 0 0.0 0.0 0.00 0.00 0.00 85 1010.0
20260504224854 86 0 0.0 0.0 0.00 0.00 0.00 86 1010.0
20260504223832 85 0 0.0 0.0 0.00 0.00 0.00 86 1010.0
20260504222810 86 0 0.0 0.0 0.00 0.00 0.00 84 1010.0
20260504221748 85 0 0.0 0.0 0.00 0.00 0.00 84 1009.0
20260504220726 86 0 0.0 0.0 0.00 0.00 0.00 82 1009.0
20260504215704 85 0 0.0 0.0 0.00 0.00 0.00 83 1009.0
20260504214642 86 0 0.0 0.0 0.00 0.00 0.00 84 1010.0
20260504213620 86 0 0.0 0.0 0.00 0.00 0.00 82 1010.0
20260504212558 86 0 0.0 0.0 0.00 0.00 0.00 84 1010.0
20260504211536 86 0 0.0 0.0 0.00 0.00 0.00 86 1010.0
20260504210514 86 0 0.0 0.0 0.00 0.00 0.00 87 1010.0
20260504205452 86 0 0.0 0.0 0.00 0.00 0.00 88 1010.0
20260504204430 86 0 0.0 0.0 0.00 0.00 0.00 89 1010.0
20260504203408 86 0 0.0 0.0 0.00 0.00 0.00 90 1010.0
20260504202346 86 0 0.0 0.0 0.00 0.00 0.00 89 1011.0
20260504201324 86 0 0.0 0.0 0.00 0.00 0.00 88 1011.0
20260504200301 87 0 0.0 0.0 0.00 0.00 0.00 87 1010.0
20260504195239 87 0 0.0 0.0 0.00 0.00 0.00 87 1010.0
20260504194217 86 0 0.0 0.0 0.00 0.00 0.00 86 1010.0
20260504193155 86 0 0.0 0.0 0.00 0.00 0.00 85 1010.0
20260504191936 86 0 0.0 0.0 0.00 0.00 0.00 86 1010.0
20260504191011 86 0 0.0 0.0 0.00 0.00 0.00 87 1010.0
20260504185949 86 0 0.0 0.0 0.00 0.00 0.00 89 1010.0
20260504184927 85 0 0.0 0.0 0.00 0.00 0.00 92 1010.0
20260504183905 86 0 0.0 0.0 0.00 0.00 0.00 89 1011.0
20260504182843 84 0 0.0 0.0 0.00 0.00 0.00 96 1011.0
20260504182231 86 0 0.0 0.0 0.00 0.00 0.00 90 1011.0
20260504181311 85 0 0.0 0.0 0.00 0.00 0.00 91 1011.0
20260504180249 85 0 0.0 0.0 0.00 0.00 0.00 95 1011.0
20260504175543 87 0 0.0 0.0 0.00 0.00 0.00 87 1011.0
20260504174520 87 0 0.0 0.0 0.00 0.00 0.00 87 1012.0
20260504173458 87 0 0.0 0.0 0.00 0.00 0.00 89 1012.0
20260504172436 87 0 0.0 0.0 0.00 0.00 0.00 87 1012.0
20260504171414 86 0 0.0 0.0 0.00 0.00 0.00 87 1012.0
20260504170352 87 0 0.0 0.0 0.00 0.00 0.00 90 1013.0
20260504160225 89 0 0.0 0.0 0.00 0.00 0.00 93 1011.0
20260504150158 89 0 0.0 0.0 0.00 0.00 0.00 91 1012.0
20260504141008 89 0 0.0 0.0 0.00 0.00 0.00 92 1011.0
20260504130155 88 0 0.0 0.0 0.00 0.00 0.00 86 1009.0
20260504081445 99 0 0.0 0.0 0.00 0.00 0.00 59 1007.0
20260504080423 102 0 0.0 0.0 0.00 0.00 0.00 50 1007.0
20260504070211 103 0 0.0 0.0 0.00 0.00 0.00 50 1007.0
20260504060138 102 0 0.0 0.0 0.00 0.00 0.00 49 1008.0
20260504045017 100 0 0.0 0.0 0.00 0.00 0.00 56 1010.0
20260504043955 100 0 0.0 0.0 0.00 0.00 0.00 56 1010.0
20260504043117 101 0 0.0 0.0 0.00 0.00 0.00 56 1010.0
20260504042055 100 0 0.0 0.0 0.00 0.00 0.00 56 1010.0
20260504041033 99 0 0.0 0.0 0.00 0.00 0.00 57 1010.0
20260504035905 99 0 0.0 0.0 0.00 0.00 0.00 59 1010.0
20260504034843 100 0 0.0 0.0 0.00 0.00 0.00 57 1010.0
20260504033821 101 0 0.0 0.0 0.00 0.00 0.00 55 1010.0
20260504032758 101 0 0.0 0.0 0.00 0.00 0.00 59 1010.0
20260504031736 100 0 0.0 0.0 0.00 0.00 0.00 61 1010.0
20260504030714 100 0 0.0 0.0 0.00 0.00 0.00 61 1011.0
20260504025652 99 0 0.0 0.0 0.00 0.00 0.00 63 1011.0
20260504024630 99 0 0.0 0.0 0.00 0.00 0.00 58 1011.0
20260504023608 98 0 0.0 0.0 0.00 0.00 0.00 61 1011.0
20260504022546 98 0 0.0 0.0 0.00 0.00 0.00 67 1011.0
20260504021524 99 0 0.0 0.0 0.00 0.00 0.00 66 1011.0
20260504020502 97 0 0.0 0.0 0.00 0.00 0.00 68 1011.0
20260504015440 97 0 0.0 0.0 0.00 0.00 0.00 70 1011.0
20260504014418 96 0 0.0 0.0 0.00 0.00 0.00 72 1011.0
20260504013356 97 0 0.0 0.0 0.00 0.00 0.00 71 1011.0
20260504012334 97 0 0.0 0.0 0.00 0.00 0.00 70 1011.0
20260504011312 96 0 0.0 0.0 0.00 0.00 0.00 73 1011.0
20260504010250 96 0 0.0 0.0 0.00 0.00 0.00 71 1011.0
20260504005736 96 0 0.0 0.0 0.00 0.00 0.00 73 1011.0
20260504004714 95 0 0.0 0.0 0.00 0.00 0.00 74 1011.0
20260504003652 94 0 0.0 0.0 0.00 0.00 0.00 77 1010.0
20260504002630 93 0 0.0 0.0 0.00 0.00 0.00 77 1010.0
20260504001608 93 0 0.0 0.0 0.00 0.00 0.00 77 1010.0